Terminal Aerodrome Forecast
Issued by NWS

Home | Current Version | Previous Version | Text Only | Print | Product List | Glossary On
Versions: 1 2 3 4 5 6 7 8 9 10 11 12 13 14 15 16 17 18 19 20
000
FTUS43 KMQT 240500
TAFCMX
TAF
KCMX 240532Z 2406/2506 06006KT 1/2SM -RA FG OVC003
     FM240900 36006KT 1/2SM -RA FG OVC003
     FM241300 36014G23KT 1SM -SN OVC006
     FM241600 35020G30KT 1SM -SN OVC006=

USA.gov is the U.S. government's official web portal to all federal, state and local government web resources and services.